TimeCDT,TemperatureF,Dew PointF,Humidity,Sea Level PressureIn,VisibilityMPH,Wind Direction,Wind SpeedMPH,Gust SpeedMPH,PrecipitationIn,Events,Conditions,WindDirDegrees,DateUTC
12:53 AM,64.9,62.1,90,29.99,10.0,Calm,Calm,-,N/A,,Clear,0,2013-06-19 05:53:00
1:53 AM,62.1,61.0,96,29.99,10.0,Calm,Calm,-,N/A,,Clear,0,2013-06-19 06:53:00
2:53 AM,62.1,61.0,96,29.99,10.0,Calm,Calm,-,N/A,,Clear,0,2013-06-19 07:53:00
3:53 AM,62.1,60.1,93,30.00,9.0,Calm,Calm,-,N/A,,Clear,0,2013-06-19 08:53:00
4:53 AM,62.1,60.1,93,29.99,8.0,Calm,Calm,-,N/A,,Clear,0,2013-06-19 09:53:00
5:53 AM,60.1,59.0,96,30.01,6.0,Calm,Calm,-,N/A,,Clear,0,2013-06-19 10:53:00
6:53 AM,64.0,63.0,96,30.03,8.0,Calm,Calm,-,N/A,,Clear,0,2013-06-19 11:53:00
7:53 AM,68.0,64.0,87,30.02,10.0,Calm,Calm,-,N/A,,Clear,0,2013-06-19 12:53:00
8:53 AM,72.0,66.0,81,30.03,10.0,Variable,3.5,-,N/A,,Clear,0,2013-06-19 13:53:00
9:53 AM,77.0,66.0,69,30.05,10.0,Calm,Calm,-,N/A,,Clear,0,2013-06-19 14:53:00
10:53 AM,80.1,66.0,62,30.04,8.0,ESE,6.9,-,N/A,,Partly Cloudy,110,2013-06-19 15:53:00
11:53 AM,81.0,63.0,54,30.03,10.0,SSE,11.5,-,N/A,,Partly Cloudy,150,2013-06-19 16:53:00
12:53 PM,82.9,64.9,54,30.02,10.0,SE,8.1,-,N/A,,Partly Cloudy,140,2013-06-19 17:53:00
1:53 PM,84.0,61.0,46,30.00,10.0,SE,10.4,-,N/A,,Mostly Cloudy,130,2013-06-19 18:53:00
2:53 PM,84.0,60.1,44,30.00,10.0,SE,9.2,-,N/A,,Partly Cloudy,140,2013-06-19 19:53:00
3:53 PM,84.0,62.1,47,29.99,10.0,SSE,6.9,-,N/A,,Scattered Clouds,160,2013-06-19 20:53:00
4:53 PM,86.0,61.0,43,29.97,10.0,South,10.4,-,N/A,,Partly Cloudy,180,2013-06-19 21:53:00
5:53 PM,82.9,60.1,46,29.96,10.0,SSE,11.5,-,N/A,,Clear,150,2013-06-19 22:53:00
6:53 PM,81.0,60.1,49,29.97,10.0,South,8.1,-,N/A,,Clear,170,2013-06-19 23:53:00
7:53 PM,78.1,61.0,56,29.97,10.0,SSE,8.1,-,N/A,,Clear,160,2013-06-20 00:53:00
8:53 PM,73.9,63.0,68,29.97,10.0,SSE,5.8,-,N/A,,Clear,160,2013-06-20 01:53:00
9:53 PM,73.0,63.0,71,29.98,10.0,SSE,4.6,-,N/A,,Clear,160,2013-06-20 02:53:00
10:53 PM,71.1,63.0,75,30.00,10.0,South,3.5,-,N/A,,Clear,170,2013-06-20 03:53:00
11:53 PM,70.0,63.0,78,30.01,10.0,Calm,Calm,-,N/A,,Clear,0,2013-06-20 04:53:00